Location: Goll?ig?dem
(16.6773°N, 80.7332°E)
Time: 00:25:21
(UTC+00:00)

Hubble Space Telescope - Pass Details

Date: 06 October 2021
Orbit: 535 x 539 km, 28.5° (Epoch: 25 October)

Event Time Altitude Azimuth Distance (km) Brightness Sun altitude
Exits shadow 23:06:25 62° 273° (W) 600 0.6 -20.4°
Maximum altitude 23:07:00 77° 335° (NNW) 550 0.6 -20.2°
Drops below altitude 10° 23:11:07 10° 62° (ENE) 1,779 4.3 -19.2°
Sets 23:13:23 0° 64° (ENE) 2,670 5.5 -18.7°
